Regional Weather Roundup
Issued by NWS Charleston, SC

Current Version | Previous Version | Text Only | Print | Product List | Glossary Off
Versions: 1 2 3 4 5 6 7 8 9 10 11 12 13 14 15 16 17 18 19 20 21 22 23 24 25 26 27 28 29 30 31 32 33 34 35 36 37 38 39 40 41 42 43 44 45 46 47 48 49 50
000 ASUS42 KCHS 112328 RWRCHS REGIONAL WEATHER ROUNDUP NATIONAL WEATHER SERVICE CHARLESTON SC 600 PM EST THU FEB 11 2016 NOTE: "FAIR" INDICATES FEW OR NO CLOUDS BELOW 12,000 FEET WITH NO SIGNIFICANT WEATHER AND/OR OBSTRUCTIONS TO VISIBILITY. NOT ALL STATIONS ARE QUALITY CONTROLLED BY THE NATIONAL WEATHER SERVICE. USE DATA WITH CAUTION...ESPECIALLY DEWPOINT OBSERVATIONS. SCZ027-030-031-034>040-042>050-120000- ...SOUTHEAST SOUTH CAROLINA... CITY SKY/WX TMP DP RH WIND PRES REMARKS N CHARLESTON PTCLDY 47 28 47 S6 30.18R WATERFRONT PRK N/A 48 33 56 S6 30.04R MOUNT PLEASANT FAIR 45 32 61 CALM 30.20R JOHNS ISLAND FAIR 45 32 61 CALM 30.20R PINOPOLIS N/A 52 34 50 VRB2 30.10S MONCKS CORNER FAIR 43 27 52 SE3 30.19R SUMMERVILLE FAIR 50 30 46 CALM 30.20R BEAUFORT MCAS CLEAR 48 35 60 S6 30.19R BEAUFORT ARPT FAIR 46 32 57 S3 30.19R HILTON HEAD IS CLEAR 50 37 62 SE5 30.20R WALTERBORO CLEAR 52 32 46 CALM 30.19R ALLENDALE FAIR 50 30 46 CALM 30.17R ...SOUTHERN MIDLANDS AND PEE DEE... CITY SKY/WX TMP DP RH WIND PRES REMARKS GEORGETOWN FAIR 43 30 61 S3 30.21R KINGSTREE FAIR 43 30 61 CALM 30.19R ORANGEBURG CLEAR 53 23 31 W3 30.17R BARNWELL FAIR 50 30 46 CALM 30.18R AIKEN FAIR 46 27 46 CALM 30.20R MANNING FAIR 41 30 65 CALM 30.19R COLUMBIA CLEAR 52 23 32 CALM 30.17R SUMTER CLEAR 45 25 45 NE3 30.15R FLORENCE CLEAR 46 22 38 CALM 30.19R MYRTLE BEACH NOT AVBL N MYRTLE BEACH CLEAR 43 30 60 SW8 30.21R $$ GAZ063-065-086>088-099>101-113>116-118-119-134>141-150-120000- ...SOUTHEAST GEORGIA... CITY SKY/WX TMP DP RH WIND PRES REMARKS SAVANNAH ARPT CLEAR 53 33 46 SE9 30.17R HUNTER AAF CLEAR 51 40 65 SE8 30.15R FORT STEWART CLEAR 55 41 58 E6 30.14R STATESBORO CLEAR 54 36 50 CALM 30.15R SYLVANIA CLEAR 53 40 61 NE5 30.17R CLAXTON FAIR 56 45 66 CALM 30.15R ...CSRA...CENTRAL AND FAR SOUTHEAST GEORGIA... CITY SKY/WX TMP DP RH WIND PRES REMARKS THOMSON CLEAR 52 32 46 CALM 30.21R AUGUSTA-BUSH CLEAR 53 25 33 SW3 30.16R AUGUSTA-DANIEL CLEAR 54 24 31 SW3 30.16R HAZE SWAINSBORO FAIR 54 36 50 NE3 30.16R VIDALIA PTCLDY 59 41 51 SW3 30.14R EASTMAN FAIR 60 41 49 CALM 30.15S HAZLEHURST FAIR 60 43 53 CALM 30.13R ALMA CLEAR 64 41 42 W3 30.13R WAYCROSS CLEAR 64 45 49 SW7 30.15R JESUP FAIR 61 45 55 CALM 30.15R BAXLEY FAIR 63 43 48 CALM 30.14R BRUNSWICK CLEAR 55 46 71 SE7 30.16R SAINT SIMONS CLEAR 54 46 74 S10G18 30.15R $$ SCZ027-028-034-036>038-045-046-048>050-GAZ119-141-120000- ...LAKE AND SUPPLEMENTAL COASTAL OBSERVATIONS... STATION/POSITION TIME TEMP WIND PRES WAVE SWELL AIR SEA DIR/SP/G HT/PER HT/PER/DIR (UTC) (F) (DEG/KT/KT) (MB) (FT/S) (FT/S/D) WINYAH BAY 2200 45 160/ 7 1021.0R LAKE MURRAY 2300 51 CALM / 3 1021.0R ACE BASIN NERRS 2245 47 160/ 2 1022.0S FORT PULASKI 2300 50 49 120/ 4/ 5 1022.3R SAPELO ISLAND 2300 55 160/ 9 1021.0R $$ ANZ835-935-AMZ111-154-330-350-352-354-370-450-454-472-120000- ...C-MAN AND BUOY OBSERVATIONS... STATION/POSITION TIME TEMP WIND PRES WAVE SWELL AIR SEA DIR/SP/G HT/PER HT/PER/DIR (UTC) (F) (DEG/KT/KT) (MB) (FT/S) (FT/S/D) BUOY 41004 2250 50 64 220/ 6/ 8 1022.7R 3/ 6 3/ 6 BUOY 41008 2250 55 53 170/ 14/ 16 1021.6R 2/ 4 FOLLY BEACH CMAN 2300 48 180/ 8/ 9 1022.5R CAPERS NEARSHORE 2208 48 200/ 10/ 14 1022.1R FRIPP NEARSHORE 2200 50 170/ 6/ 8 1021.4R STATION/POSITION TIME TEMP WIND PRES WAVE SWELL AIR SEA DIR/SP/G HT/PER HT/PER/DIR (UTC) (F) (DEG/KT/KT) (MB) (FT/S) (FT/S/D) 5E ST. MARYS GA 2221 56 N/A 3/ 4 2/ 60/13 FRYING PAN BUOY 2300 46 57 270/ 6/ 12 1023.3R BUOY 41025 2250 40 60 300/ 16/ 19 1022.8R 5/ 4 2/ 90/ 7 CAPE LOOKOUT NC NOT AVBL BUOY 41002 2250 54 68 300/ 17/ 23 N/A 9/ 8 3/360/12 BUOY 41010 2220 61 72 1025.0R ST AUGUSTINE FL 2300 57 58 170/ 18/ 21 1023.4R $$

USA.gov is the U.S. government's official web portal to all federal, state and local government web resources and services.